This is the latest recevied weather packets stored in our database for station/object WB0RXX. If no packets are shown the sender has not sent any weather packets the latest 10 day(s).
| Time | Temp. | Humidity | Pressure | Rain* | Wind** | Luminosity | Snow |
|---|---|---|---|---|---|---|---|
| 1777036204 | 5.56° C | 72% | 1011.1 hPa | 0 mm | - | - | - |
| 1777035620 | 4.44° C | 73% | 1010.9 hPa | 0 mm | - | - | - |
| 1777035004 | 3.89° C | 74% | 1010.8 hPa | 0 mm | - | - | - |
| 1777034404 | 3.33° C | 76% | 1011.4 hPa | 0 mm | - | - | - |
| 1777033803 | 3.33° C | 77% | 1011.3 hPa | 0 mm | - | - | - |
| 1777033204 | 3.33° C | 77% | 1011 hPa | 0 mm | - | - | - |
| 1777032604 | 3.33° C | 77% | 1010.7 hPa | 0 mm | - | - | - |
| 1777032003 | 3.33° C | 77% | 1010.5 hPa | 0 mm | - | - | - |
| 1777031404 | 3.33° C | 76% | 1010.4 hPa | 0 mm | - | - | - |
| 1777030803 | 3.33° C | 76% | 1010.4 hPa | 0 mm | - | - | - |
| 1777030220 | 3.33° C | 76% | 1010.4 hPa | 0 mm | - | - | - |
| 1777029602 | 3.33° C | 75% | 1010.1 hPa | 0 mm | - | - | - |
| 1777029004 | 3.33° C | 74% | 1010.1 hPa | 0 mm | - | - | - |
| 1777028404 | 3.33° C | 74% | 1010.2 hPa | 0 mm | - | - | - |
| 1777027804 | 3.89° C | 73% | 1010.4 hPa | 0 mm | - | - | - |
| 1777027220 | 3.89° C | 73% | 1010.2 hPa | 0 mm | - | - | - |
| 1777026604 | 3.89° C | 72% | 1010.2 hPa | 0 mm | - | - | - |
| 1777026004 | 3.89° C | 72% | 1010 hPa | 0 mm | - | - | - |
| 1777025404 | 4.44° C | 72% | 1010 hPa | 0 mm | - | - | - |
| 1777024803 | 4.44° C | 73% | 1010.2 hPa | 0 mm | - | - | - |
| 1777024203 | 4.44° C | 72% | 1010.2 hPa | 0 mm | - | - | - |
| 1777023620 | 4.44° C | 72% | 1010.2 hPa | 0 mm | - | - | - |
| 1777023003 | 4.44° C | 73% | 1010.4 hPa | 0 mm | - | - | - |
| 1777022403 | 4.44° C | 73% | 1010.4 hPa | 0 mm | - | - | - |
| 1777021804 | 4.44° C | 73% | 1010.4 hPa | 0 mm | - | - | - |
* Rain latest hour (hover to see other rain measurements)
** Current wind speed in m/s (hover to see current wind gust speed)